Location: University City
(32.8548°N, 117.2039°W)
Time: 05:07:49
(UTC+00:00)

Daily predictions for brighter satellites

Satellite Brightness Start Highest point End
(mag) Time Altitude Azimuth Time Altitude Azimuth Time Altitude Azimuth
SMAP 3.1 01:22:23 10° SSE 01:27:01 90° WSW 01:31:41 10° NNW
Milstar 3 3.3 01:20:07 10° WSW 01:27:30 53° S 01:34:01 10° E
Cosmos 2297 Rocket 3.8 01:24:39 10° NNE 01:27:31 14° NE 01:30:23 10° E
Cosmos 2266 Rocket 4.1 01:21:40 10° N 01:27:57 85° E 01:34:19 10° S
SAR-Lupe-1 4.2 01:25:30 10° NNE 01:29:01 52° E 01:32:31 10° S
USA 276 2.8 01:26:53 10° NW 01:30:01 58° SW 01:33:08 10° SE
Cosmos 1400 Rocket 3.7 01:26:45 10° SSE 01:30:22 30° E 01:34:00 10° NNE
Cosmos 1809 Rocket 4.4 01:25:43 10° N 01:31:51 75° E 01:37:55 10° S
CORIOLIS 4.1 01:26:39 10° SSE 01:31:58 82° ENE 01:37:20 10° N
USA 281 3.3 01:26:02 10° SSE 01:32:35 86° ENE 01:39:10 10° NNW
Cosmos 1689 Rocket 2.6 01:29:56 10° NNE 01:32:37 35° E 01:35:17 10° SSE
COSMOS 2487 2.3 01:33:02 10° NNW 01:36:29 82° ENE 01:39:53 10° SSE
Cosmos 1331 Rocket 4.4 01:33:24 10° SSW 01:38:32 66° WNW 01:43:39 10° N
COSMO-SKYMED 1 2.6 01:37:40 10° NNE 01:41:59 62° E 01:46:15 10° S
Okean O Rocket 2.3 01:37:54 10° S 01:42:12 59° WSW 01:46:31 10° NNW
OAO 2 Rocket 3.4 01:37:25 10° WSW 01:42:21 64° SSE 01:46:47 13° E
YAOGAN 1 3.7 01:47:56 10° ESE 01:51:12 21° ENE 01:54:29 10° NNE
Cosmos 1825 Rocket 3.6 01:49:52 10° N 01:54:18 85° W 01:58:42 10° S
Aureole 3 2.8 01:51:36 10° S 01:55:10 64° E 01:58:15 10° NNE
Cosmos 2219 4.2 01:50:42 10° N 01:55:28 26° ENE 01:59:59 11° ESE
Cosmos 1315 Rocket 4.0 01:56:33 10° SE 01:59:28 20° E 02:00:17 19° ENE
Cosmos 1892 3.9 01:57:35 10° NNE 02:00:33 21° ENE 02:01:24 19° E
CZ-2D R/B 3.5 01:58:27 10° SSE 02:02:05 44° ENE 02:05:43 10° N
Hubble Space Telescope 3.1 01:59:28 10° WSW 02:02:24 19° SSW 02:05:19 10° SSE
Cosmos 1726 Rocket 4.3 01:59:00 10° SSW 02:03:14 56° W 02:07:31 10° N
S3M 4.3 01:57:55 10° SSE 02:03:28 38° E 02:09:04 10° NNE
CZ-2C R/B 3.8 01:59:08 10° SE 02:04:23 36° ENE 02:09:34 10° N
Delta 2 Rocket 4.1 01:59:17 10° WNW 02:04:33 70° N 02:08:24 21° E
Cosmos 1300 3.9 02:01:47 10° SSW 02:05:26 45° W 02:09:07 10° N
Cosmos 1302 Rocket 4.3 02:02:53 10° SSW 02:08:06 72° WNW 02:13:22 10° NNE
Cosmos 2369 4.3 02:05:14 10° SSE 02:10:20 34° ESE 02:14:26 15° NE
Atlas Centaur 2 3.4 02:04:02 10° WSW 02:12:17 59° SSE 02:17:56 22° E
Okean-O 2.7 02:08:24 10° SSE 02:12:41 50° ENE 02:16:58 10° N
Meteor 2-10 Rocket 3.8 02:07:49 10° SSE 02:13:02 48° E 02:18:03 10° NNE
Cosmos 1417 Rocket 4.4 02:09:01 10° S 02:15:08 65° E 02:21:22 10° NNE
Timation 2 Rocket 4.1 02:09:25 10° NNW 02:16:03 63° ENE 02:22:49 10° SSE
ARGOS 4.2 02:18:06 23° ENE 02:18:06 23° ENE 02:22:01 10° NNE
BREEZE-M DEB (TANK) 3.8 02:15:22 10° SSW 02:19:28 24° SSE 02:19:43 24° SE
BREEZE-M TANK 4.4 02:15:58 10° WNW 02:21:12 21° N 02:23:04 16° NNE
Meteor 2-1 Rocket 4.3 02:17:10 10° SSE 02:22:30 51° E 02:27:48 10° NNE
NOSS 3-3 (A) 3.7 02:18:32 10° SSW 02:24:04 70° ESE 02:29:21 14° NE
NOSS 3-3 (C) 3.7 02:18:36 10° SSW 02:24:11 70° ESE 02:29:28 14° NE
Elektron 3 4.3 02:20:28 10° NW 02:24:54 71° WSW 02:26:51 20° SSE
Cosmos 1656 3.9 02:20:13 10° SSW 02:25:41 69° WNW 02:31:18 10° NNE
Delta 142 4.4 02:23:43 10° WSW 02:28:25 53° S 02:31:16 28° ESE
MOS 1 Rocket 3.3 02:24:49 10° NNE 02:29:31 63° E 02:34:31 10° S
Cosmos 2227 Rocket 2.6 02:26:36 10° N 02:31:54 40° ENE 02:33:07 35° E
CSL-04 Rocket 4.0 02:27:42 11° SE 02:32:50 45° ENE 02:38:05 10° N
Cosmos 1553 Rocket 4.2 02:27:28 10° S 02:33:51 77° W 02:40:11 10° N
DMSP B5D1-3 4.4 02:29:09 10° NNE 02:34:19 80° ESE 02:39:28 10° S
OAO 3 Rocket 3.0 02:32:52 10° WNW 02:37:40 89° SSW 02:38:53 50° ESE
Helios 1A Rocket 3.3 02:34:10 10° S 02:38:15 64° WSW 02:42:21 10° NNW
GEOS 3 Rocket 4.4 02:38:25 33° NE 02:38:33 33° NE 02:43:18 10° NNW
Cosmos 1939 Rocket 4.4 02:35:34 10° SSW 02:39:17 37° W 02:42:59 10° NNW
SL-08 ROCKET BODY 4.3 02:33:53 10° N 02:40:00 69° E 02:46:08 10° SSE
Cosmos 1340 2.8 02:36:25 10° NNW 02:40:11 74° W 02:43:56 10° S
BREEZE-M DEB (TANK) 4.0 02:38:15 10° WSW 02:41:52 71° NW 02:50:32 16° NE
Cosmos 1697 Rocket 2.5 02:37:37 10° SSW 02:43:12 85° ESE 02:47:49 16° NNE
ASTRO E2 2.8 02:42:23 10° WSW 02:46:10 59° S 02:46:10 59° S
OAO 1 Rocket 4.4 02:41:07 10° W 02:46:29 79° N 02:47:44 53° ENE
H-2A R/B 2.1 02:43:42 20° SSE 02:47:26 62° ENE 02:52:48 10° N
Cosmos 1992 Rocket 4.0 02:44:03 10° SSW 02:49:14 78° WNW 02:54:08 12° NNE
Cosmos 220 Rocket 4.3 02:45:03 10° SSW 02:49:19 65° WNW 02:52:04 22° N
Cosmos 1455 2.4 02:51:11 10° SSW 02:54:54 65° W 02:54:54 65° W
Meteor 2-15 Rocket 4.4 02:49:00 10° S 02:55:09 83° W 03:01:19 10° N
CZ-4 R/B 2.6 02:56:12 10° S 02:59:54 40° W 03:03:35 10° NNW
GPS 2-04 Rocket1 3.7 03:00:03 10° WSW 03:03:00 43° SW 03:03:00 43° SW
Cosmos 44 Rocket 3.4 03:00:23 10° SSW 03:04:22 65° SSW 03:04:22 65° SSW
Cosmos 1980 Rocket 2.3 02:59:31 10° S 03:04:12 56° SSE 03:04:12 56° SSE
Cosmos 1745 Rocket 4.0 03:01:00 10° N 03:07:19 81° W 03:13:39 10° S
CSL-04 Debris 4.3 03:05:47 10° S 03:11:11 73° WSW 03:16:38 10° NNW
Cosmos 2297 Rocket 2.3 03:06:27 10° NNW 03:12:05 71° WSW 03:14:00 42° S
Cosmos 2360 4.5 03:09:51 10° SSW 03:15:32 67° WNW 03:17:41 38° N
OAO 2 Rocket 4.2 03:22:12 10° W 03:25:44 45° WNW 03:25:44 45° WNW
SeaSat 1 4.3 03:31:00 22° NNW 03:31:00 22° NNW 03:32:43 10° NNW
Cosmos 2278 4.1 03:25:35 10° SSW 03:30:21 59° WSW 03:30:21 59° WSW
Cosmos 2315 Rocket 4.4 03:38:27 10° SSW 03:49:08 18° N 03:50:40 10° N
Atlas Centaur 2 3.3 03:53:32 10° W 04:00:32 61° WSW 04:00:32 61° WSW
Milstar 3 3.7 04:03:59 10° W 04:08:18 41° WSW 04:08:18 41° WSW
Cosmos 2227 Rocket 4.3 04:11:21 10° NW 04:15:02 22° W 04:15:02 22° W
CENTAUR R/B 4.5 10:44:29 21° NE 10:44:29 21° NE 10:46:40 10° NE
CZ-3 R/B 4.3 10:42:21 50° SW 10:51:28 65° SSE 11:03:24 10° E
ATLAS 3B R/B 3.7 11:23:35 25° SSE 11:26:47 40° ESE 11:32:50 10° NE
COSMOS 2406 3.8 11:30:19 53° ENE 11:30:19 53° ENE 11:34:53 10° NNE
Cosmos 2344 4.4 11:37:02 33° NNW 11:37:02 33° NNW 11:42:05 10° NNE
Cosmos 2279 Rocket 4.3 11:31:07 10° N 11:37:15 63° E 11:43:21 10° SSE
ADEOS Rocket 3.2 11:39:24 10° SSE 11:44:48 57° ENE 11:50:11 10° N
Cosmos 1461 4.0 11:46:38 46° E 11:46:38 46° E 11:50:40 10° NE
ISS -0.6 11:52:02 10° NE 11:52:02 10° NE 11:52:03 10° NE
CBERS 1 LM4 rocket 4.5 11:49:26 10° NNE 11:54:17 71° ESE 11:54:46 65° SE
